Retour au catalogue

STARLINK-5026

ActifCommunicationsVLEO
NORAD 57260·PAYLOAD·🇺🇸 United States

Lancé Jul 7, 2023 depuis Vandenberg Space Force Base

Loading…

Prochains Passages (prochaines 24 heures)

TLE

FraisSource: CelesTrak SupGP

Époque: Sep 14, 2026, 22:25 UTC

1 57260C 23094AU  26257.93451389  .00000683  00000+0  24723-4 0  2577
2 57260  43.0022  30.9994 0001600 270.5813 105.3603 15.27583713    11

Suivez STARLINK-5026 en temps réel avec AllMySat

Download on the App Store